Flag for Germany Weather past 2 weeks in Berlin, Berlin, Germany

Now
66 °F

Mild.


Feels Like: 66 °F
Forecast: 60 / 72 °F
Wind: 2 mph from Southeast

Location: Berlin-Tempelhof

Current Time: Sep 19, 2014 at 3:56:00 PM

Latest Report: Sep 19, 2014 at 3:00 PM


Visibility: N/A

Pressure: 29.96 "Hg

Humidity: 72%

Dew point: 57 °F

Location of BerlinLocation

Historic Weather in Berlin — Graph

°F

Berlin temperature yesterday

Maximum temperature yesterday: 76 °F (at 4:00 PM)
Minimum temperature yesterday: 56 °F (at 7:00 AM)
Average temperature yesterday: 65 °F

Past Weeks' High & Low Weather Summary

 TemperatureHumidityPressure
High81 °F (Sep 7, 4:00 PM)96% (Sep 11, 6:00 AM)30.18 "Hg (Sep 11, 6:00 AM)
Low52 °F (Sep 11, 12:00 AM)39% (Sep 8, 4:00 PM)29.87 "Hg (Sep 6, 6:00 PM)
Average65 °F73%30.04 "Hg
* Reported Sep 4 3:00 PM — Sep 19 3:00 PM, Berlin, Weather by CustomWeather, © 2014

Note: Actual official high and low records may vary slightly from our data, if they occured in-between our weather recording intervals... More about our weather records

Advertising

Berlin weather history for previous 24 hours

 ConditionsComfort  
Time TempWeatherWind HumidityBarometerVisibility
3:00 PM
Sep 19
66 °FMild.2 mph72%29.96 "HgN/A
2:00 PM66 °FMild.3 mph75%29.96 "HgN/A
1:00 PM63 °FMild.3 mph81%29.96 "HgN/A
12:00 PM61 °FCool.2 mph87%29.96 "HgN/A
11:00 AM60 °FCool.1 mph87%29.97 "HgN/A
10:00 AM60 °FCool.2 mph84%29.96 "HgN/A
9:00 AM59 °FCool.2 mph84%29.96 "HgN/A
8:00 AM56 °FCool.2 mph86%29.96 "HgN/A
7:00 AM56 °FCool.2 mph86%29.95 "HgN/A
6:00 AM55 °FCool.2 mph86%29.95 "HgN/A
5:00 AM55 °FCool.1 mph85%29.95 "HgN/A
4:00 AM56 °FCool.2 mph82%29.95 "HgN/A
3:00 AM58 °FCool.2 mph80%29.96 "HgN/A
2:00 AM59 °FCool.3 mph77%29.96 "HgN/A
1:00 AM60 °FCool.2 mph74%29.96 "HgN/A
12:00 AM62 °FCool.3 mph71%29.96 "HgN/A
11:00 PM
Sep 18
63 °FMild.2 mph68%29.96 "HgN/A
10:00 PM64 °FMild.2 mph65%29.97 "HgN/A
9:00 PM66 °FMild.2 mph60%29.97 "HgN/A
8:00 PM69 °FMild.3 mph55%29.96 "HgN/A
7:00 PM72 °FMild.5 mph49%29.96 "HgN/A
6:00 PM74 °FMild.6 mph44%29.95 "HgN/A
5:00 PM76 °FMild.6 mph42%29.95 "HgN/A
4:00 PM76 °FMild.6 mph45%29.95 "HgN/A
3:00 PM74 °FMild.6 mph46%29.95 "HgN/A
Weather by CustomWeather, © 2014

See weather overviewHow to use our weather pages